GPS BIIR-2 (PRN 13) 1 24876U 97035A 25292.88603096 .00000052 00000+0 00000+0 0 9996 2 24876 55.8674 107.9749 0096112 56.8076 304.1513 2.00563260207136 GPS BIIR-4 (PRN 20) 1 26360U 00025A 25292.96432624 -.00000106 00000+0 00000+0 0 9996 2 26360 55.0149 29.0130 0037971 237.0465 271.1758 2.00572120186456 GPS BIIR-5 (PRN 22) 1 26407U 00040A 25292.99539102 -.00000034 00000+0 00000+0 0 9997 2 26407 54.9064 224.7045 0129011 300.7144 69.7887 2.00567294185134 GPS BIIR-8 (PRN 16) 1 27663U 03005A 25292.80937446 -.00000036 00000+0 00000+0 0 9991 2 27663 54.9396 224.5221 0144999 51.0463 320.0987 2.00573871166493 GPS BIIR-11 (PRN 19) 1 28190U 04009A 25292.85501575 -.00000049 00000+0 00000+0 0 9991 2 28190 55.0329 285.3900 0107776 166.5591 38.4332 2.00562920158120 GPS BIIR-13 (PRN 02) 1 28474U 04045A 25293.59919301 -.00000084 00000+0 00000+0 0 9997 2 28474 55.2652 334.5446 0169035 307.1452 134.1792 2.00567169153627 GPS BIIRM-1 (PRN 17) 1 28874U 05038A 25292.84925882 -.00000048 00000+0 00000+0 0 9992 2 28874 55.0789 282.8697 0133689 292.1813 289.0144 2.00551845147014 GPS BIIRM-2 (PRN 31) 1 29486U 06042A 25293.35520557 .00000057 00000+0 00000+0 0 9994 2 29486 54.6875 160.8599 0106966 50.4206 78.9796 2.00556223139586 GPS BIIRM-3 (PRN 12) 1 29601U 06052A 25292.60329098 -.00000037 00000+0 00000+0 0 9997 2 29601 54.9852 223.5454 0086064 87.0266 273.9512 2.00570151138586 GPS BIIRM-4 (PRN 15) 1 32260U 07047A 25293.40634489 .00000008 00000+0 00000+0 0 9996 2 32260 53.9166 89.9610 0164745 84.4154 277.4686 2.00566744132001 GPS BIIRM-5 (PRN 29) 1 32384U 07062A 25293.46634797 -.00000048 00000+0 00000+0 0 9993 2 32384 55.2270 283.7819 0032328 163.8224 8.8508 2.00574772130709 GPS BIIRM-6 (PRN 07) 1 32711U 08012A 25293.32639533 .00000058 00000+0 00000+0 0 9991 2 32711 54.4689 159.5059 0200942 244.4609 113.5458 2.00563236128940 GPS BIIRM-8 (PRN 05) 1 35752U 09043A 25293.04653168 -.00000097 00000+0 00000+0 0 9997 2 35752 56.0559 36.9000 0053539 82.2340 93.5342 2.00568945118540 GPS BIIF-1 (PRN 25) 1 36585U 10022A 25293.38466390 -.00000023 00000+0 00000+0 0 9996 2 36585 54.3123 218.2244 0123485 64.4943 116.3625 2.00550418112781 GPS BIIF-3 (PRN 24) 1 38833U 12053A 25292.50682972 .00000059 00000+0 00000+0 0 9997 2 38833 53.5476 153.4604 0173661 63.0370 298.8273 2.00564564 94614 GPS BIIF-4 (PRN 27) 1 39166U 13023A 25291.87188200 -.00000046 00000+0 00000+0 0 9996 2 39166 54.6986 278.7973 0134740 48.1897 312.9456 2.00565414 91045 GPS BIIF-5 (PRN 30) 1 39533U 14008A 25292.86560205 .00000055 00000+0 00000+0 0 9996 2 39533 53.6222 159.1223 0078355 226.1640 133.2833 2.00571354 84863 GPS BIIF-6 (PRN 06) 1 39741U 14026A 25293.14536295 -.00000088 00000+0 00000+0 0 9998 2 39741 56.6028 340.8622 0037244 316.8988 42.8742 2.00565279 83724 GPS BIIF-7 (PRN 09) 1 40105U 14045A 25289.24691742 .00000050 00000+0 00000+0 0 9998 2 40105 55.1924 98.1921 0033278 118.0337 242.3365 2.00569032 81184 GPS BIIF-8 (PRN 03) 1 40294U 14068A 25292.61200734 -.00000092 00000+0 00000+0 0 9991 2 40294 56.8195 40.2390 0061308 69.9007 290.7550 2.00561543 80385 GPS BIIF-9 (PRN 26) 1 40534U 15013A 25293.24171826 -.00000021 00000+0 00000+0 0 9990 2 40534 53.2101 214.1047 0104336 37.0746 323.6549 2.00565769 77010 GPS BIIF-10 (PRN 08) 1 40730U 15033A 25293.40352090 -.00000049 00000+0 00000+0 0 9992 2 40730 54.1764 276.9661 0107637 25.6951 334.8189 2.00568351 75189 GPS BIIF-11 (PRN 10) 1 41019U 15062A 25292.96377799 -.00000093 00000+0 00000+0 0 9997 2 41019 56.7954 40.0817 0108760 228.6165 130.4457 2.00567174 73012 GPS BIIF-12 (PRN 32) 1 41328U 16007A 25293.04553860 .00000033 00000+0 00000+0 0 9998 2 41328 55.3739 98.9874 0089704 242.6192 116.4879 2.00563581 71027 GPS BIII-1 (PRN 04) 1 43873U 18109A 25292.92949957 .00000040 00000+0 00000+0 0 9990 2 43873 55.5352 101.6709 0036210 193.3554 338.4192 2.00552275 50258 GPS BIII-2 (PRN 18) 1 44506U 19056A 25293.57436400 -.00000089 00000+0 00000+0 0 9996 2 44506 55.7415 340.6646 0057407 197.1188 335.0020 2.00564885 45263 GPS BIII-3 (PRN 23) 1 45854U 20041A 25293.27996953 -.00000095 00000+0 00000+0 0 9997 2 45854 56.5101 38.2673 0059016 201.2812 63.0134 2.00563280 39221 GPS BIII-4 (PRN 14) 1 46826U 20078A 25289.20312859 -.00000051 00000+0 00000+0 0 9994 2 46826 54.0306 220.6753 0063294 203.5882 326.5082 2.00567133 36612 GPS BIII-5 (PRN 11) 1 48859U 21054A 25289.21780060 -.00000094 00000+0 00000+0 0 9998 2 48859 55.2755 342.2645 0024072 230.1379 138.7905 2.00556500 31865 GPS BIII-6 (PRN 28) 1 55268U 23009A 25293.14808894 .00000060 00000+0 00000+0 0 9997 2 55268 55.0996 157.9510 0003666 357.6218 10.6825 2.00560173 20438 GPS BIII-7 (PRN 01) 1 62339U 24242A 25290.54198530 -.00000097 00000+0 00000+0 0 9995 2 62339 54.9394 344.0177 0009308 341.2377 21.0929 2.00566620 6390 GPS BIII-8 (PRN 21) 1 64202U 25116A 25292.75878288 -.00000093 00000+0 00000+0 0 9993 2 64202 55.0676 40.8208 0003237 299.1223 54.7358 2.00562068 3048